| time (UTC) | temp C | wind direction | speed KPH | gust KPH | rain 1hr cm | rain 24hr cm | rain mn cm | humidity % | barometer mb |
| 20260502170313 | 6 | 323 | 16.1 | 22.5 | 0.00 | 0.00 | 0.00 | 47 | 1021.3 |
| 20260502164300 | 7 | 281 | 20.9 | 30.6 | 0.00 | 0.00 | 0.00 | 45 | 1021.3 |
| 20260502163755 | 6 | 272 | 22.5 | 24.1 | 0.00 | 0.00 | 0.00 | 47 | 1021.6 |
| 20260502163252 | 6 | 204 | 4.8 | 8.0 | 0.00 | 0.00 | 0.00 | 47 | 1021.4 |
| 20260502162749 | 6 | 262 | 20.9 | 24.1 | 0.00 | 0.00 | 0.00 | 47 | 1021.6 |
| 20260502162246 | 6 | 289 | 12.9 | 19.3 | 0.00 | 0.00 | 0.00 | 49 | 1021.7 |
| 20260502161743 | 6 | 267 | 20.9 | 33.8 | 0.00 | 0.00 | 0.00 | 45 | 1021.6 |
| 20260502161239 | 6 | 216 | 9.7 | 11.3 | 0.00 | 0.00 | 0.00 | 46 | 1021.6 |
| 20260502160732 | 6 | 293 | 6.4 | 8.0 | 0.00 | 0.00 | 0.00 | 45 | 1021.4 |
| 20260502160231 | 6 | 239 | 3.2 | 4.8 | 0.00 | 0.00 | 0.00 | 49 | 1021.7 |
| 20260502152154 | 6 | 219 | 17.7 | 22.5 | 0.00 | 0.00 | 0.00 | 49 | 1021.6 |
| 20260502151652 | 5 | 233 | 4.8 | 4.8 | 0.00 | 0.00 | 0.00 | 50 | 1021.6 |
| 20260502151149 | 5 | 287 | 6.4 | 11.3 | 0.00 | 0.00 | 0.00 | 48 | 1021.7 |
| 20260502150646 | 6 | 273 | 14.5 | 16.1 | 0.00 | 0.00 | 0.00 | 48 | 1021.7 |
| 20260502150143 | 5 | 205 | 3.2 | 4.8 | 0.00 | 0.00 | 0.00 | 46 | 1021.7 |
| 20260502140106 | 5 | 169 | 3.2 | 4.8 | 0.00 | 0.00 | 0.00 | 49 | 1021.9 |
| 20260502130531 | 4 | 224 | 6.4 | 8.0 | 0.00 | 0.00 | 0.00 | 62 | 1021.9 |
| 20260502123515 | 3 | 327 | 6.4 | 8.0 | 0.00 | 0.00 | 0.00 | 69 | 1022.0 |
| 20260502123011 | 3 | 215 | 8.0 | 14.5 | 0.00 | 0.00 | 0.00 | 70 | 1021.9 |
| 20260502122508 | 2 | 203 | 3.2 | 4.8 | 0.00 | 0.00 | 0.00 | 70 | 1021.7 |
| 20260502122005 | 2 | 214 | 8.0 | 14.5 | 0.00 | 0.00 | 0.00 | 71 | 1021.9 |
| 20260502121502 | 2 | 277 | 11.3 | 16.1 | 0.00 | 0.00 | 0.00 | 72 | 1022.0 |
| 20260502120959 | 2 | 319 | 3.2 | 4.8 | 0.00 | 0.00 | 0.00 | 72 | 1021.9 |
| 20260502120455 | 2 | 292 | 11.3 | 11.3 | 0.00 | 0.00 | 0.00 | 72 | 1021.8 |
| 20260502115450 | 2 | 201 | 1.6 | 3.2 | 0.00 | 0.00 | 0.00 | 74 | 1021.8 |
| 20260502114946 | 2 | 208 | 4.8 | 8.0 | 0.00 | 0.00 | 0.00 | 74 | 1021.8 |
| 20260502114444 | 2 | 188 | 0.0 | 3.2 | 0.00 | 0.00 | 0.00 | 75 | 1021.7 |
| 20260502113940 | 2 | 198 | 1.6 | 4.8 | 0.00 | 0.00 | 0.00 | 75 | 1021.7 |
| 20260502113438 | 2 | 246 | 3.2 | 4.8 | 0.00 | 0.00 | 0.00 | 75 | 1021.8 |
| 20260502112936 | 1 | 287 | 4.8 | 11.3 | 0.00 | 0.00 | 0.00 | 76 | 1021.8 |
| 20260502112433 | 1 | 238 | 4.8 | 4.8 | 0.00 | 0.00 | 0.00 | 77 | 1021.7 |
| 20260502111931 | 1 | 264 | 1.6 | 3.2 | 0.00 | 0.00 | 0.00 | 80 | 1021.8 |
| 20260502111427 | 1 | 208 | 1.6 | 3.2 | 0.00 | 0.00 | 0.00 | 81 | 1021.8 |
| 20260502110925 | 0 | 210 | 0.0 | 0.0 | 0.00 | 0.00 | 0.00 | 82 | 1021.7 |
| 20260502110423 | 0 | 207 | 3.2 | 4.8 | 0.00 | 0.00 | 0.00 | 83 | 1021.4 |
| 20260502105920 | 0 | 203 | 0.0 | 0.0 | 0.00 | 0.00 | 0.00 | 83 | 1021.8 |
| 20260502105418 | 0 | 209 | 0.0 | 0.0 | 0.00 | 0.00 | 0.00 | 83 | 1021.4 |
| 20260502104916 | 0 | 208 | 0.0 | 0.0 | 0.00 | 0.00 | 0.00 | 83 | 1021.5 |
| 20260502104412 | 0 | 212 | 0.0 | 0.0 | 0.00 | 0.00 | 0.00 | 83 | 1021.4 |
| 20260502103909 | 0 | 210 | 0.0 | 0.0 | 0.00 | 0.00 | 0.00 | 83 | 1021.3 |
| 20260502103407 | 0 | 211 | 0.0 | 0.0 | 0.00 | 0.00 | 0.00 | 84 | 1021.4 |
| 20260502102904 | 0 | 231 | 0.0 | 0.0 | 0.00 | 0.00 | 0.00 | 85 | 1021.1 |
| 20260502102400 | 1 | 203 | 0.0 | 0.0 | 0.00 | 0.00 | 0.00 | 85 | 1021.3 |
| 20260502101858 | 1 | 218 | 0.0 | 0.0 | 0.00 | 0.00 | 0.00 | 86 | 1021.2 |
| 20260502101356 | 1 | 213 | 0.0 | 0.0 | 0.00 | 0.00 | 0.00 | 87 | 1021.2 |
| 20260502100854 | 1 | 237 | 0.0 | 0.0 | 0.00 | 0.00 | 0.00 | 89 | 1021.1 |
| 20260502100353 | 1 | 212 | 0.0 | 0.0 | 0.00 | 0.00 | 0.00 | 89 | 1021.1 |
| 20260502091326 | 1 | 203 | 0.0 | 0.0 | 0.00 | 0.00 | 0.00 | 90 | 1020.8 |
| 20260502090824 | 1 | 195 | 0.0 | 0.0 | 0.00 | 0.00 | 0.00 | 90 | 1020.9 |
| 20260502090321 | 1 | 195 | 0.0 | 0.0 | 0.00 | 0.00 | 0.00 | 89 | 1020.8 |
| 20260502071216 | 2 | 176 | 0.0 | 0.0 | 0.00 | 0.00 | 0.00 | 81 | 1020.6 |
| 20260502070714 | 2 | 173 | 0.0 | 0.0 | 0.00 | 0.00 | 0.00 | 81 | 1020.6 |
| 20260502070211 | 2 | 175 | 0.0 | 0.0 | 0.00 | 0.00 | 0.00 | 81 | 1020.7 |
| 20260502065710 | 2 | 175 | 0.0 | 0.0 | 0.00 | 0.00 | 0.00 | 81 | 1020.6 |
| 20260502065207 | 2 | 179 | 0.0 | 0.0 | 0.00 | 0.00 | 0.00 | 81 | 1020.6 |
| 20260502064706 | 2 | 174 | 0.0 | 0.0 | 0.00 | 0.00 | 0.00 | 81 | 1020.8 |
| 20260502064202 | 2 | 171 | 0.0 | 0.0 | 0.00 | 0.00 | 0.00 | 81 | 1020.8 |
| 20260502063700 | 2 | 172 | 0.0 | 0.0 | 0.00 | 0.00 | 0.00 | 81 | 1020.8 |
| 20260502063158 | 2 | 172 | 0.0 | 0.0 | 0.00 | 0.00 | 0.00 | 81 | 1020.7 |
| 20260502062655 | 2 | 172 | 0.0 | 0.0 | 0.00 | 0.00 | 0.00 | 81 | 1020.9 |
| 20260502062152 | 2 | 168 | 0.0 | 0.0 | 0.00 | 0.00 | 0.00 | 81 | 1020.9 |
| 20260502061651 | 2 | 176 | 0.0 | 0.0 | 0.00 | 0.00 | 0.00 | 81 | 1020.8 |
| 20260502061148 | 2 | 161 | 0.0 | 0.0 | 0.00 | 0.00 | 0.00 | 81 | 1021.0 |
| 20260502060648 | 2 | 173 | 0.0 | 0.0 | 0.00 | 0.00 | 0.00 | 81 | 1021.1 |
| 20260502060145 | 2 | 164 | 1.6 | 3.2 | 0.00 | 0.00 | 0.00 | 81 | 1021.1 |
| 20260502055643 | 2 | 161 | 0.0 | 0.0 | 0.00 | 0.00 | 0.00 | 81 | 1021.0 |
| 20260502055140 | 2 | 143 | 1.6 | 3.2 | 0.00 | 0.00 | 0.00 | 81 | 1020.9 |
| 20260502054639 | 2 | 158 | 0.0 | 0.0 | 0.00 | 0.00 | 0.00 | 81 | 1021.0 |
| 20260502054136 | 2 | 163 | 0.0 | 0.0 | 0.00 | 0.00 | 0.00 | 81 | 1021.2 |
| 20260502053633 | 2 | 161 | 0.0 | 0.0 | 0.00 | 0.00 | 0.00 | 81 | 1021.1 |
| 20260502053130 | 2 | 102 | 3.2 | 4.8 | 0.00 | 0.00 | 0.00 | 81 | 1021.1 |
| 20260502052629 | 2 | 47 | 1.6 | 3.2 | 0.00 | 0.00 | 0.00 | 81 | 1021.0 |
| 20260502052126 | 2 | 77 | 4.8 | 8.0 | 0.00 | 0.00 | 0.00 | 81 | 1021.1 |
| 20260502051625 | 3 | 87 | 3.2 | 4.8 | 0.00 | 0.00 | 0.00 | 81 | 1020.9 |
| 20260502051122 | 3 | 158 | 0.0 | 0.0 | 0.00 | 0.00 | 0.00 | 80 | 1020.9 |
| 20260502050618 | 3 | 43 | 3.2 | 4.8 | 0.00 | 0.00 | 0.00 | 80 | 1021.0 |
| 20260502050115 | 3 | 118 | 3.2 | 4.8 | 0.00 | 0.00 | 0.00 | 80 | 1020.9 |
| 20260502045611 | 3 | 137 | 1.6 | 3.2 | 0.00 | 0.00 | 0.00 | 80 | 1020.7 |
| 20260502045109 | 3 | 122 | 3.2 | 3.2 | 0.00 | 0.00 | 0.00 | 79 | 1020.8 |
| 20260502044605 | 3 | 102 | 3.2 | 4.8 | 0.00 | 0.00 | 0.00 | 79 | 1020.6 |
| 20260502044102 | 3 | 106 | 4.8 | 4.8 | 0.00 | 0.00 | 0.00 | 78 | 1020.5 |
| 20260502043600 | 3 | 84 | 3.2 | 8.0 | 0.00 | 0.00 | 0.00 | 78 | 1020.6 |
| 20260502043056 | 3 | 96 | 4.8 | 11.3 | 0.00 | 0.00 | 0.00 | 76 | 1020.5 |
| 20260502042551 | 3 | 96 | 0.0 | 0.0 | 0.00 | 0.00 | 0.00 | 72 | 1020.5 |
| 20260502042049 | 4 | 82 | 16.1 | 22.5 | 0.00 | 0.00 | 0.00 | 69 | 1020.5 |
| 20260502041547 | 4 | 308 | 3.2 | 4.8 | 0.00 | 0.00 | 0.00 | 62 | 1020.5 |
| 20260502041043 | 5 | 329 | 3.2 | 3.2 | 0.00 | 0.00 | 0.00 | 61 | 1020.5 |
| 20260502040540 | 5 | 214 | 1.6 | 3.2 | 0.00 | 0.00 | 0.00 | 60 | 1020.6 |
| 20260502040037 | 5 | 349 | 8.0 | 11.3 | 0.00 | 0.00 | 0.00 | 58 | 1020.5 |
| 20260502035533 | 5 | 32 | 0.0 | 0.0 | 0.00 | 0.00 | 0.00 | 56 | 1020.4 |
| 20260502035031 | 5 | 159 | 1.6 | 3.2 | 0.00 | 0.00 | 0.00 | 54 | 1020.4 |
| 20260502034528 | 5 | 225 | 1.6 | 3.2 | 0.00 | 0.00 | 0.00 | 54 | 1020.4 |
| 20260502034027 | 5 | 241 | 3.2 | 3.2 | 0.00 | 0.00 | 0.00 | 53 | 1020.2 |
| 20260502033525 | 5 | 240 | 4.8 | 4.8 | 0.00 | 0.00 | 0.00 | 54 | 1020.2 |
| 20260502033022 | 5 | 230 | 1.6 | 3.2 | 0.00 | 0.00 | 0.00 | 53 | 1020.3 |
| 20260502032517 | 5 | 297 | 1.6 | 3.2 | 0.00 | 0.00 | 0.00 | 54 | 1020.4 |
| 20260502032015 | 5 | 228 | 0.0 | 3.2 | 0.00 | 0.00 | 0.00 | 55 | 1020.3 |
| 20260502031512 | 5 | 245 | 3.2 | 4.8 | 0.00 | 0.00 | 0.00 | 53 | 1020.2 |
| 20260502031010 | 5 | 247 | 4.8 | 4.8 | 0.00 | 0.00 | 0.00 | 55 | 1020.3 |
| 20260502030508 | 5 | 211 | 1.6 | 3.2 | 0.00 | 0.00 | 0.00 | 55 | 1020.2 |
| 20260502030005 | 5 | 3 | 1.6 | 3.2 | 0.00 | 0.00 | 0.00 | 54 | 1020.3 |
| 20260502025502 | 5 | 280 | 4.8 | 8.0 | 0.00 | 0.00 | 0.00 | 55 | 1020.4 |
| 20260502025000 | 5 | 203 | 0.0 | 3.2 | 0.00 | 0.00 | 0.00 | 57 | 1020.3 |
| 20260502024458 | 5 | 293 | 4.8 | 4.8 | 0.00 | 0.00 | 0.00 | 57 | 1020.2 |
| 20260502023956 | 5 | 229 | 1.6 | 3.2 | 0.00 | 0.00 | 0.00 | 59 | 1020.2 |
| 20260502023453 | 5 | 222 | 0.0 | 0.0 | 0.00 | 0.00 | 0.00 | 58 | 1020.3 |
| 20260502022951 | 5 | 206 | 0.0 | 0.0 | 0.00 | 0.00 | 0.00 | 58 | 1020.1 |
| 20260502022447 | 5 | 215 | 0.0 | 0.0 | 0.00 | 0.00 | 0.00 | 58 | 1020.1 |
| 20260502021944 | 5 | 246 | 1.6 | 3.2 | 0.00 | 0.00 | 0.00 | 58 | 1020.1 |
| 20260502021441 | 5 | 202 | 0.0 | 3.2 | 0.00 | 0.00 | 0.00 | 58 | 1020.2 |
| 20260502020938 | 5 | 308 | 3.2 | 4.8 | 0.00 | 0.00 | 0.00 | 57 | 1020.0 |
| 20260502020436 | 5 | 268 | 0.0 | 3.2 | 0.00 | 0.00 | 0.00 | 58 | 1020.2 |
| 20260502015932 | 5 | 336 | 1.6 | 4.8 | 0.00 | 0.00 | 0.00 | 58 | 1019.8 |
| 20260502015431 | 5 | 254 | 4.8 | 8.0 | 0.00 | 0.00 | 0.00 | 57 | 1020.0 |
| 20260502014927 | 5 | 15 | 8.0 | 8.0 | 0.00 | 0.00 | 0.00 | 57 | 1019.8 |
| 20260502014425 | 5 | 198 | 3.2 | 4.8 | 0.00 | 0.00 | 0.00 | 56 | 1020.0 |
| 20260502013921 | 5 | 340 | 4.8 | 8.0 | 0.00 | 0.00 | 0.00 | 55 | 1019.8 |
| 20260502013416 | 5 | 32 | 6.4 | 11.3 | 0.00 | 0.00 | 0.00 | 56 | 1019.6 |
| 20260502012913 | 5 | 298 | 4.8 | 8.0 | 0.00 | 0.00 | 0.00 | 55 | 1019.7 |
| 20260502012411 | 5 | 26 | 8.0 | 11.3 | 0.00 | 0.00 | 0.00 | 56 | 1019.7 |
| 20260502011908 | 5 | 45 | 9.7 | 14.5 | 0.00 | 0.00 | 0.00 | 56 | 1019.5 |
| 20260502011404 | 5 | 7 | 14.5 | 19.3 | 0.00 | 0.00 | 0.00 | 56 | 1019.4 |
| 20260502010902 | 6 | 19 | 4.8 | 8.0 | 0.00 | 0.00 | 0.00 | 57 | 1019.5 |
| 20260502010358 | 6 | 41 | 6.4 | 8.0 | 0.00 | 0.00 | 0.00 | 56 | 1019.4 |
| 20260502005855 | 6 | 325 | 4.8 | 4.8 | 0.00 | 0.00 | 0.00 | 56 | 1019.2 |
| 20260502005353 | 6 | 29 | 1.6 | 3.2 | 0.00 | 0.00 | 0.00 | 56 | 1019.2 |
| 20260502004850 | 6 | 188 | 0.0 | 3.2 | 0.00 | 0.00 | 0.00 | 56 | 1019.0 |
| 20260502004346 | 6 | 314 | 6.4 | 8.0 | 0.00 | 0.00 | 0.00 | 56 | 1019.2 |
| 20260502003844 | 6 | 333 | 6.4 | 11.3 | 0.00 | 0.00 | 0.00 | 54 | 1018.9 |
| 20260502003340 | 6 | 158 | 1.6 | 3.2 | 0.00 | 0.00 | 0.00 | 52 | 1019.1 |
| 20260502002837 | 6 | 329 | 6.4 | 8.0 | 0.00 | 0.00 | 0.00 | 51 | 1019.0 |
| 20260502002334 | 6 | 328 | 6.4 | 8.0 | 0.00 | 0.00 | 0.00 | 50 | 1019.1 |
| 20260502001831 | 6 | 268 | 6.4 | 8.0 | 0.00 | 0.00 | 0.00 | 51 | 1018.8 |
| 20260502001329 | 6 | 272 | 9.7 | 14.5 | 0.00 | 0.00 | 0.00 | 50 | 1019.0 |
| 20260502000826 | 6 | 258 | 3.2 | 4.8 | 0.00 | 0.00 | 0.00 | 51 | 1018.7 |
| 20260502000325 | 6 | 238 | 4.8 | 4.8 | 0.00 | 0.00 | 0.00 | 50 | 1018.8 |
| 20260501235820 | 6 | 303 | 4.8 | 4.8 | 0.00 | 0.00 | 0.00 | 49 | 1018.7 |
| 20260501235316 | 6 | 260 | 1.6 | 3.2 | 0.00 | 0.00 | 0.00 | 54 | 1018.9 |
| 20260501234811 | 6 | 286 | 6.4 | 11.3 | 0.00 | 0.00 | 0.00 | 54 | 1018.7 |
| 20260501234309 | 6 | 203 | 0.0 | 0.0 | 0.00 | 0.00 | 0.00 | 55 | 1018.9 |
| 20260501233808 | 7 | 229 | 0.0 | 0.0 | 0.00 | 0.00 | 0.00 | 54 | 1018.5 |
| 20260501233304 | 7 | 194 | 0.0 | 0.0 | 0.00 | 0.00 | 0.00 | 57 | 1018.7 |
| 20260501232800 | 7 | 305 | 3.2 | 3.2 | 0.00 | 0.00 | 0.00 | 56 | 1018.6 |
| 20260501232257 | 7 | 260 | 3.2 | 4.8 | 0.00 | 0.00 | 0.00 | 56 | 1018.8 |
| 20260501231755 | 6 | 100 | 3.2 | 4.8 | 0.00 | 0.00 | 0.00 | 56 | 1018.6 |
| 20260501231253 | 6 | 87 | 1.6 | 3.2 | 0.00 | 0.00 | 0.00 | 57 | 1018.8 |
| 20260501230751 | 6 | 197 | 0.0 | 0.0 | 0.00 | 0.00 | 0.00 | 56 | 1018.7 |
| 20260501230249 | 7 | 163 | 0.0 | 0.0 | 0.00 | 0.00 | 0.00 | 57 | 1018.6 |
| 20260501225746 | 7 | 313 | 0.0 | 0.0 | 0.00 | 0.00 | 0.00 | 57 | 1018.8 |
| 20260501225244 | 7 | 333 | 6.4 | 8.0 | 0.00 | 0.00 | 0.00 | 58 | 1018.6 |
| 20260501224739 | 6 | 49 | 3.2 | 4.8 | 0.00 | 0.00 | 0.00 | 58 | 1018.6 |
| 20260501224238 | 6 | 323 | 4.8 | 8.0 | 0.00 | 0.00 | 0.00 | 58 | 1018.7 |
| 20260501223733 | 7 | 270 | 3.2 | 4.8 | 0.00 | 0.00 | 0.00 | 55 | 1018.7 |
| 20260501223230 | 7 | 240 | 3.2 | 4.8 | 0.00 | 0.00 | 0.00 | 55 | 1018.6 |
| 20260501222726 | 7 | 213 | 1.6 | 3.2 | 0.00 | 0.00 | 0.00 | 55 | 1018.7 |
| 20260501222223 | 7 | 164 | 0.0 | 0.0 | 0.00 | 0.00 | 0.00 | 55 | 1018.8 |
| 20260501221720 | 6 | 216 | 3.2 | 4.8 | 0.00 | 0.00 | 0.00 | 55 | 1018.6 |
| 20260501221217 | 7 | 268 | 8.0 | 11.3 | 0.00 | 0.00 | 0.00 | 55 | 1018.5 |
| 20260501220715 | 6 | 250 | 4.8 | 8.0 | 0.00 | 0.00 | 0.00 | 56 | 1018.6 |
| 20260501220212 | 6 | 284 | 3.2 | 8.0 | 0.00 | 0.00 | 0.00 | 58 | 1018.6 |
| 20260501215709 | 6 | 187 | 0.0 | 0.0 | 0.00 | 0.00 | 0.00 | 59 | 1018.4 |
| 20260501215204 | 6 | 321 | 6.4 | 8.0 | 0.00 | 0.00 | 0.00 | 58 | 1018.4 |
| 20260501214659 | 7 | 340 | 8.0 | 11.3 | 0.00 | 0.00 | 0.00 | 57 | 1018.4 |
| 20260501214155 | 7 | 236 | 4.8 | 8.0 | 0.00 | 0.00 | 0.00 | 56 | 1018.4 |
| 20260501213652 | 7 | 356 | 6.4 | 11.3 | 0.00 | 0.00 | 0.00 | 56 | 1018.5 |
| 20260501213148 | 7 | 318 | 8.0 | 11.3 | 0.00 | 0.00 | 0.00 | 56 | 1018.5 |
| 20260501212645 | 7 | 325 | 6.4 | 14.5 | 0.00 | 0.00 | 0.00 | 55 | 1018.4 |
| 20260501212142 | 7 | 196 | 1.6 | 3.2 | 0.00 | 0.00 | 0.00 | 55 | 1018.4 |
| 20260501211638 | 7 | 296 | 6.4 | 16.1 | 0.00 | 0.00 | 0.00 | 54 | 1018.3 |
| 20260501211136 | 7 | 261 | 3.2 | 4.8 | 0.00 | 0.00 | 0.00 | 54 | 1018.2 |
| 20260501210632 | 7 | 297 | 6.4 | 8.0 | 0.00 | 0.00 | 0.00 | 54 | 1018.2 |
| 20260501210129 | 7 | 317 | 11.3 | 14.5 | 0.00 | 0.00 | 0.00 | 52 | 1018.3 |
| 20260501205625 | 7 | 281 | 11.3 | 14.5 | 0.00 | 0.00 | 0.00 | 52 | 1018.2 |
| 20260501205123 | 7 | 266 | 6.4 | 8.0 | 0.00 | 0.00 | 0.00 | 53 | 1018.0 |
| 20260501204619 | 7 | 223 | 0.0 | 3.2 | 0.00 | 0.00 | 0.00 | 53 | 1018.1 |
| 20260501204115 | 7 | 280 | 9.7 | 11.3 | 0.00 | 0.00 | 0.00 | 53 | 1018.1 |
| 20260501203612 | 7 | 262 | 6.4 | 11.3 | 0.00 | 0.00 | 0.00 | 53 | 1018.1 |
| 20260501203109 | 7 | 330 | 6.4 | 8.0 | 0.00 | 0.00 | 0.00 | 53 | 1018.2 |
| 20260501202607 | 7 | 167 | 1.6 | 3.2 | 0.00 | 0.00 | 0.00 | 54 | 1018.1 |
| 20260501202103 | 7 | 283 | 4.8 | 4.8 | 0.00 | 0.00 | 0.00 | 54 | 1018.2 |
| 20260501201600 | 7 | 314 | 6.4 | 8.0 | 0.00 | 0.00 | 0.00 | 55 | 1018.1 |
| 20260501201056 | 7 | 323 | 9.7 | 11.3 | 0.00 | 0.00 | 0.00 | 54 | 1018.0 |
| 20260501200554 | 7 | 311 | 11.3 | 14.5 | 0.00 | 0.00 | 0.00 | 55 | 1018.0 |
| 20260501200051 | 7 | 337 | 11.3 | 19.3 | 0.00 | 0.00 | 0.00 | 53 | 1017.9 |
| 20260501195549 | 7 | 274 | 24.1 | 30.6 | 0.00 | 0.00 | 0.00 | 49 | 1017.9 |
| 20260501195044 | 8 | 276 | 6.4 | 8.0 | 0.00 | 0.00 | 0.00 | 48 | 1018.0 |
| 20260501194539 | 8 | 272 | 4.8 | 4.8 | 0.00 | 0.00 | 0.00 | 50 | 1017.9 |
| 20260501194036 | 8 | 323 | 11.3 | 14.5 | 0.00 | 0.00 | 0.00 | 50 | 1017.8 |
| 20260501193533 | 8 | 244 | 4.8 | 8.0 | 0.00 | 0.00 | 0.00 | 51 | 1017.9 |
| 20260501193032 | 8 | 211 | 3.2 | 4.8 | 0.00 | 0.00 | 0.00 | 51 | 1017.9 |
| 20260501192528 | 8 | 56 | 6.4 | 8.0 | 0.00 | 0.00 | 0.00 | 50 | 1017.7 |
| 20260501192026 | 8 | 212 | 3.2 | 4.8 | 0.00 | 0.00 | 0.00 | 51 | 1017.9 |
| 20260501191523 | 8 | 303 | 3.2 | 4.8 | 0.00 | 0.00 | 0.00 | 52 | 1017.8 |
| 20260501191020 | 7 | 263 | 3.2 | 3.2 | 0.00 | 0.00 | 0.00 | 53 | 1018.0 |
| 20260501190515 | 7 | 310 | 4.8 | 8.0 | 0.00 | 0.00 | 0.00 | 54 | 1017.7 |
| 20260501190012 | 7 | 25 | 3.2 | 4.8 | 0.00 | 0.00 | 0.00 | 54 | 1017.7 |
| 20260501185508 | 7 | 200 | 3.2 | 11.3 | 0.00 | 0.00 | 0.00 | 52 | 1018.0 |
| 20260501185003 | 7 | 286 | 1.6 | 4.8 | 0.00 | 0.00 | 0.00 | 53 | 1017.7 |
| 20260501184459 | 7 | 325 | 8.0 | 14.5 | 0.00 | 0.00 | 0.00 | 54 | 1017.7 |
| 20260501183955 | 7 | 348 | 4.8 | 8.0 | 0.00 | 0.00 | 0.00 | 53 | 1017.9 |
| 20260501183452 | 7 | 347 | 3.2 | 4.8 | 0.00 | 0.00 | 0.00 | 54 | 1017.7 |
| 20260501182948 | 8 | 59 | 6.4 | 8.0 | 0.00 | 0.00 | 0.00 | 53 | 1017.8 |
| 20260501182445 | 7 | 208 | 1.6 | 3.2 | 0.00 | 0.00 | 0.00 | 54 | 1017.7 |
| 20260501181942 | 8 | 73 | 1.6 | 3.2 | 0.00 | 0.00 | 0.00 | 56 | 1017.7 |
| 20260501181439 | 7 | 183 | 6.4 | 8.0 | 0.00 | 0.00 | 0.00 | 55 | 1017.6 |
| 20260501180936 | 7 | 2 | 3.2 | 4.8 | 0.00 | 0.00 | 0.00 | 55 | 1017.6 |
| 20260501180433 | 7 | 309 | 6.4 | 11.3 | 0.00 | 0.00 | 0.00 | 55 | 1017.5 |
| 20260501175929 | 7 | 11 | 6.4 | 8.0 | 0.00 | 0.00 | 0.00 | 55 | 1017.5 |
| 20260501175426 | 7 | 251 | 11.3 | 16.1 | 0.00 | 0.00 | 0.00 | 54 | 1017.7 |
| 20260501174923 | 8 | 84 | 4.8 | 4.8 | 0.00 | 0.00 | 0.00 | 55 | 1017.7 |
| 20260501174421 | 8 | 233 | 3.2 | 4.8 | 0.00 | 0.00 | 0.00 | 54 | 1017.6 |
| 20260501173918 | 7 | 348 | 8.0 | 11.3 | 0.00 | 0.00 | 0.00 | 55 | 1017.9 |
| 20260501173416 | 7 | 336 | 9.7 | 19.3 | 0.00 | 0.00 | 0.00 | 55 | 1017.8 |
| 20260501172911 | 8 | 357 | 8.0 | 11.3 | 0.00 | 0.00 | 0.00 | 55 | 1017.4 |
| 20260501172406 | 7 | 201 | 0.0 | 3.2 | 0.00 | 0.00 | 0.00 | 54 | 1017.7 |